Change the Weather History Date:

Tuesday, August 27, 2013

  Actual Average (KCIU) Record (KCIU)
Temperature  
Mean Temperature 72 °F -  
Max Temperature 81 °F 73 °F 85 °F (1983)
Min Temperature 64 °F 52 °F 41 °F (1992)
Cooling Degree Days 8    
Growing Degree Days 22 (Base 50)    
Moisture  
Dew Point 67 °F    
Average Humidity 90    
Maximum Humidity 100    
Minimum Humidity 65    
Precipitation  
Precipitation 0.00 in - - ()
Sea Level Pressure  
Sea Level Pressure 29.90 in    
Wind  
Wind Speed 1 mph (SW)    
Max Wind Speed 9 mph    
Max Gust Speed -    
Visibility 6 miles    
Events Fog    
Averages and records for this station are not official NWS values.
T = Trace of Precipitation, MM = Missing Value Source: NWS Daily Summary

Daily Weather History Graph

Daily Weather History Graph

Search for Another Location

Airport or City:

Trip Planner

Search our weather history database for the weather conditions in past years. The results will help you decide how hot, cold, wet, or windy it might be!

Date:

Astronomy

Aug. 27, 2013 Rise Set
Actual Time 6:49 AM EDT 8:22 PM EDT
Civil Twilight 6:18 AM EDT 8:53 PM EDT
Nautical Twilight 5:40 AM EDT 9:31 PM EDT
Astronomical Twilight 4:59 AM EDT 10:11 PM EDT
Moon 11:50 PM EDT (8/27) 2:11 PM EDT (8/27)
Length of Visible Light 14h 34m
Length of Day
13h 32m
Waning Gibbous, 57% of the Moon is Illuminated
Aug 27
Waning Gibbous
Aug 28
Last Quarter
Sep 5
New
Sep 12
First Quarter
Sep 19
Full

Hourly Weather History & Observations

Time (EDT) Temp. Heat Index Dew Point Humidity Pressure Visibility Wind Dir Wind Speed Gust Speed Precip Events Conditions
12:15 AM 70.2 °F - 68.0 °F 93% 29.95 in 10.0 mi Calm Calm - N/A   Clear
12:35 AM 69.8 °F - 67.8 °F 93% 29.93 in 10.0 mi Calm Calm - N/A   Clear
12:55 AM 69.1 °F - 68.0 °F 96% 29.94 in 10.0 mi Calm Calm - N/A   Clear
1:15 AM 68.9 °F - 67.8 °F 96% 29.93 in 7.0 mi Calm Calm - N/A   Clear
1:35 AM 68.2 °F - 67.5 °F 98% 29.93 in 7.0 mi Calm Calm - N/A   Clear
1:55 AM 68.2 °F - 67.5 °F 98% 29.92 in 7.0 mi Calm Calm - N/A   Clear
2:15 AM 68.4 °F - 67.8 °F 98% 29.92 in 5.0 mi Calm Calm - N/A   Clear
2:35 AM 68.0 °F - 67.3 °F 98% 29.92 in 5.0 mi Calm Calm - N/A   Clear
2:55 AM 68.2 °F - 67.3 °F 97% 29.93 in 5.0 mi Calm Calm - N/A   Clear
3:15 AM 67.5 °F - 66.7 °F 98% 29.92 in 4.0 mi Calm Calm - N/A   Scattered Clouds
3:35 AM 67.5 °F - 66.9 °F 98% 29.92 in 2.5 mi Calm Calm - N/A   Overcast
3:54 AM 67.3 °F - 67.1 °F 99% 29.92 in 1.0 mi Calm Calm - N/A   Overcast
4:15 AM 66.9 °F - 66.6 °F 99% 29.92 in 0.2 mi Calm Calm - N/A Fog Fog
4:35 AM 67.1 °F - 67.1 °F 100% 29.92 in 0.2 mi Calm Calm - N/A Fog Fog
4:54 AM 66.4 °F - 66.4 °F 100% 29.92 in 0.2 mi West 3.5 mph - N/A Fog Fog
5:15 AM 66.2 °F - 66.2 °F 100% 29.92 in 0.2 mi Calm Calm - N/A Fog Fog
5:35 AM 65.7 °F - 65.7 °F 100% 29.92 in 0.2 mi Calm Calm - N/A Fog Fog
5:55 AM 65.7 °F - 65.7 °F 100% 29.91 in 0.2 mi Calm Calm - N/A Fog Fog
6:15 AM 65.7 °F - 65.7 °F 100% 29.91 in 0.2 mi Calm Calm - N/A Fog Fog
6:34 AM 65.7 °F - 65.7 °F 100% 29.92 in 0.2 mi Calm Calm - N/A Fog Fog
6:55 AM 65.8 °F - 65.8 °F 100% 29.91 in 0.2 mi Calm Calm - N/A Fog Fog
7:15 AM 66.2 °F - 66.2 °F 100% 29.92 in 0.2 mi Calm Calm - N/A Fog Fog
7:34 AM 66.4 °F - 66.4 °F 100% 29.91 in 0.2 mi Calm Calm - N/A Fog Fog
7:55 AM 66.4 °F - 66.4 °F 100% 29.90 in 0.2 mi Calm Calm - N/A Fog Fog
8:15 AM 66.4 °F - 66.4 °F 100% 29.91 in 0.2 mi Calm Calm - N/A Fog Fog
8:35 AM 66.7 °F - 66.7 °F 100% 29.90 in 0.2 mi Calm Calm - N/A Fog Fog
8:55 AM 66.7 °F - 66.7 °F 100% 29.91 in 0.5 mi Calm Calm - N/A Fog Fog
9:15 AM 67.1 °F - 67.1 °F 100% 29.90 in 0.5 mi Calm Calm - N/A Fog Fog
9:35 AM 67.3 °F - 67.3 °F 100% 29.90 in 4.0 mi NE 3.5 mph - N/A   Overcast
9:55 AM 67.3 °F - 67.3 °F 100% 29.91 in 3.0 mi Calm Calm - N/A   Overcast
10:15 AM 67.8 °F - 67.8 °F 100% 29.91 in 1.8 mi Calm Calm - N/A   Overcast
10:34 AM 68.4 °F - 68.4 °F 100% 29.91 in 2.0 mi Calm Calm - N/A   Overcast
10:55 AM 69.1 °F - 69.1 °F 100% 29.91 in 3.0 mi Calm Calm - N/A   Overcast
11:15 AM 70.7 °F - 70.7 °F 100% 29.91 in 7.0 mi Calm Calm - N/A   Overcast
11:35 AM 74.5 °F - 70.0 °F 86% 29.92 in 10.0 mi West 3.5 mph - N/A   Mostly Cloudy
11:55 AM 75.6 °F - 70.0 °F 83% 29.91 in 10.0 mi SSW 4.6 mph - N/A   Scattered Clouds
12:15 PM 73.8 °F - 69.1 °F 85% 29.92 in 10.0 mi WSW 8.1 mph - N/A   Mostly Cloudy
12:35 PM 72.5 °F - 68.7 °F 88% 29.91 in 10.0 mi SSW 8.1 mph - N/A   Mostly Cloudy
12:55 PM 74.1 °F - 68.9 °F 84% 29.91 in 10.0 mi SW 5.8 mph - N/A   Scattered Clouds
1:15 PM 75.6 °F - 68.0 °F 77% 29.90 in 10.0 mi SW 4.6 mph - N/A   Scattered Clouds
1:35 PM 77.9 °F - 67.8 °F 71% 29.90 in 10.0 mi Calm Calm - N/A   Clear
1:55 PM 79.3 °F - 68.2 °F 69% 29.89 in 10.0 mi NW 4.6 mph - N/A   Clear
2:15 PM 79.2 °F - 68.4 °F 69% 29.89 in 10.0 mi Calm Calm - N/A   Clear
2:35 PM 79.0 °F - 68.7 °F 71% 29.87 in 10.0 mi West 3.5 mph - N/A   Clear
2:55 PM 79.7 °F - 68.7 °F 69% 29.87 in 10.0 mi West 4.6 mph - N/A   Clear
3:15 PM 80.6 °F 83.5 °F 68.5 °F 67% 29.87 in 10.0 mi Calm Calm - N/A   Clear
3:35 PM 80.2 °F 83.0 °F 68.5 °F 67% 29.85 in 10.0 mi NW 4.6 mph - N/A   Clear
3:55 PM 81.1 °F 84.0 °F 68.5 °F 65% 29.85 in 10.0 mi Calm Calm - N/A   Clear
4:14 PM 80.8 °F 83.8 °F 69.1 °F 67% 29.85 in 10.0 mi SW 3.5 mph - N/A   Clear
4:35 PM 80.8 °F 83.9 °F 69.3 °F 68% 29.86 in 10.0 mi SSW 3.5 mph - N/A   Clear
4:55 PM 78.1 °F - 68.7 °F 73% 29.87 in 10.0 mi SSW 5.8 mph - N/A   Clear
5:15 PM 77.7 °F - 67.5 °F 71% 29.87 in 10.0 mi SSW 8.1 mph - N/A   Clear
5:35 PM 77.0 °F - 67.1 °F 71% 29.86 in 10.0 mi SSW 5.8 mph - N/A   Clear
5:55 PM 75.7 °F - 66.9 °F 74% 29.86 in 10.0 mi SSW 9.2 mph - N/A   Clear
6:15 PM 76.1 °F - 66.7 °F 73% 29.87 in 10.0 mi SSW 6.9 mph - N/A   Clear
6:35 PM 75.9 °F - 67.5 °F 75% 29.87 in 10.0 mi SSW 5.8 mph - N/A   Clear
6:55 PM 75.2 °F - 67.3 °F 76% 29.87 in 10.0 mi SSW 5.8 mph - N/A   Clear
7:15 PM 74.3 °F - 67.1 °F 78% 29.87 in 10.0 mi SSW 4.6 mph - N/A   Clear
7:34 PM 73.6 °F - 67.3 °F 81% 29.87 in 10.0 mi SSW 4.6 mph - N/A   Clear
7:55 PM 72.5 °F - 67.1 °F 83% 29.87 in 10.0 mi Calm Calm - N/A   Clear
8:15 PM 70.9 °F - 67.5 °F 89% 29.87 in 10.0 mi Calm Calm - N/A   Clear
8:35 PM 69.6 °F - 67.5 °F 93% 29.87 in 10.0 mi Calm Calm - N/A   Clear
8:55 PM 68.9 °F - 67.3 °F 95% 29.88 in 10.0 mi Calm Calm - N/A   Clear
9:15 PM 68.2 °F - 66.7 °F 95% 29.88 in 10.0 mi Calm Calm - N/A   Clear
9:35 PM 67.6 °F - 66.6 °F 96% 29.88 in 7.0 mi Calm Calm - N/A   Clear
9:54 PM 67.1 °F - 66.2 °F 97% 29.89 in 7.0 mi Calm Calm - N/A   Clear
10:15 PM 66.4 °F - 65.8 °F 98% 29.89 in 4.0 mi Calm Calm - N/A   Clear
10:35 PM 66.0 °F - 65.7 °F 99% 29.89 in 2.0 mi Calm Calm - N/A   Clear
10:55 PM 65.3 °F - 64.9 °F 99% 29.89 in 0.5 mi Calm Calm - N/A Fog Fog
11:15 PM 64.6 °F - 64.6 °F 100% 29.89 in 3.0 mi Calm Calm - N/A   Clear
11:35 PM 64.4 °F - 64.4 °F 100% 29.88 in 1.8 mi Calm Calm - N/A   Mist
11:55 PM 64.0 °F - 64.0 °F 100% 29.87 in 5.0 mi Calm Calm - N/A   Clear